[[{"header":{"parameterUnit":"m.s-1","parameterCategory":1,"la1":30.2991,"la2":30.254,"lo1":-89.0895,"lo2":-89.0444,"dy":0.0017,"dx":0.0017,"nx":28,"ny":28,"refTime":"2023-09-10T03:00:00:Z","depth":0,"parameterNumber":2,"parameterNumberName":"U-component_of_WINDS"},"data":[0,0,0,0,0,0,0,0,0,0,0,0,0,0,0,0,0,0,0,0,0,0,0,0,0,0,0,0,0,0,0,0,0,0,0,0,0,0,0,0,0,0,0,0,0,0,0,0,0,0,0,0,0,0,0,0,0,0,-0.9344,-0.9344,0,-0.9343,-0.9343,-0.9343,-0.9315,-0.9315,-0.9314,-0.9313,-0.9313,-0.9314,-0.9315,0,0,0,0,0,0,0,0,0,0,0,0,0,-0.9324,-0.9324,-0.9344,-0.9344,-0.9344,-0.9343,-0.9343,-0.9343,-0.9315,-0.9315,-0.9314,-0.9313,-0.9313,-0.9314,-0.9315,0,0,0,0,0,0,0,0,0,0,0,0,0,-0.9329,-0.9325,-0.9344,-0.933,-0.9329,-0.9343,-0.9343,-0.9343,-0.9316,-0.9315,-0.9313,-0.9312,-0.9313,-0.9314,-0.9315,-0.9343,0,0,-0.9318,-0.9319,0,0,0,0,0,0,0,0,-0.9329,-0.933,-0.9332,-0.9331,-0.933,-0.9328,-0.9336,-0.9343,-0.9316,-0.9321,-0.9313,-0.9312,-0.9319,-0.932,-0.9322,-0.9343,-0.9343,-0.9318,-0.9319,-0.9319,-0.932,0,0,0,0,0,0,0,-0.9328,-0.933,-0.9344,-0.9332,-0.9331,-0.9325,-0.9324,-0.9337,-0.9326,-0.932,-0.9318,-0.9318,-0.9318,-0.9321,-0.9322,-0.9343,-0.9318,-0.9319,-0.932,-0.932,-0.9388,-0.9389,0,0,0,0,0,0,-0.933,-0.9329,-0.9344,-0.9344,-0.9326,-0.9326,-0.9325,-0.933,-0.9326,-0.9324,-0.9319,-0.9317,-0.932,-0.9321,-0.9322,-0.9355,-0.9319,-0.932,-0.9321,-0.9387,-0.9388,-0.939,0,0,0,0,0,0,-0.9329,-0.9331,-0.9344,-0.9336,-0.9337,-0.9327,-0.9333,-0.933,-0.9333,-0.9325,-0.9323,-0.9324,-0.9319,-0.932,-0.9338,-0.9354,-0.9321,-0.9322,-0.9386,-0.9387,-0.9389,-0.9421,0,0,0,0,0,0,-0.9329,-0.9331,-0.9341,-0.9337,-0.9338,-0.936,-0.9334,-0.9331,-0.9335,-0.9332,-0.9329,-0.9328,-0.9318,-0.9337,-0.9339,-0.9355,-0.9322,-0.9384,-0.9386,-0.9388,-0.9419,-0.9424,-0.9428,0,0,0,0,0,-0.9328,-0.9351,-0.9342,-0.9344,-0.935,-0.9361,-0.9362,-0.935,-0.9336,-0.9347,-0.9342,-0.9328,-0.9352,-0.9339,-0.9341,-0.9358,-0.9383,-0.9386,-0.9388,-0.9416,-0.9423,-0.9428,0,0,0,0,0,0,-0.9358,-0.935,-0.934,-0.9361,-0.9362,-0.9356,-0.9369,-0.9357,-0.9362,-0.9359,-0.9345,-0.9345,-0.9365,-0.9363,-0.9348,-0.9385,-0.9365,-0.9369,-0.9386,-0.9392,-0.9397,-0.9397,-0.9323,0,0,0,0,0,-0.9367,-0.9376,-0.9368,-0.9388,-0.9389,-0.9379,-0.9383,-0.9374,-0.9374,-0.9375,-0.9371,-0.9372,-0.938,-0.9386,-0.9393,-0.9418,-0.9418,-0.9431,-0.9436,-0.944,-0.9443,-0.9457,-0.9463,-0.9399,-0.9398,-0.9398,0,0,-0.9385,-0.9382,-0.9389,-0.9394,-0.9393,-0.9403,-0.9379,-0.9391,-0.9398,-0.9376,-0.9393,-0.9391,-0.9391,-0.9413,-0.9423,-0.9412,-0.9461,-0.9443,-0.9447,-0.9448,-0.9461,-0.9467,-0.9472,-0.94,-0.94,-0.94,0,0,-0.9425,-0.9423,-0.9439,-0.9439,-0.9439,-0.9432,-0.9436,-0.9432,-0.943,-0.9446,-0.943,-0.9439,-0.9453,-0.9454,-0.9457,-0.9498,-0.9485,-0.95,-0.9526,-0.954,-0.9545,-0.9549,-0.9564,-0.957,-0.9503,-0.9503,-0.9503,0,-0.9448,-0.9462,-0.9449,-0.9462,-0.9465,-0.9445,-0.9462,-0.9463,-0.9465,-0.9468,-0.9456,-0.9474,-0.9473,-0.9495,-0.9505,-0.9508,-0.9513,-0.95,-0.9545,-0.9549,-0.9553,-0.9568,-0.9573,-0.9505,-0.9505,-0.9505,-0.9505,0,-0.9491,-0.9502,-0.9515,-0.9517,-0.9522,-0.9537,-0.9526,-0.9533,-0.9524,-0.9519,-0.9536,-0.9534,-0.9541,-0.9545,-0.9537,-0.9567,-0.9561,-0.9547,-0.9527,-0.9562,-0.9575,-0.958,-0.9508,-0.9507,-0.9507,-0.9506,0,0,-0.9549,-0.9544,-0.9549,-0.955,-0.9549,-0.9556,-0.9571,-0.9577,-0.9583,-0.9585,-0.9597,-0.961,-0.9598,-0.9601,-0.9592,-0.9604,-0.9638,-0.959,-0.9589,-0.9599,-0.9672,-0.9682,-0.9688,-0.9629,-0.963,-0.9631,-0.9672,0,-0.9588,-0.9611,-0.96,-0.9625,-0.9635,-0.9617,-0.963,-0.963,-0.9626,-0.9634,-0.963,-0.9639,-0.9622,-0.9624,-0.9635,-0.9631,-0.9652,-0.9628,-0.9641,-0.9642,-0.9642,-0.9695,-0.9706,-0.9744,-0.9677,-0.9678,-0.9678,0,-0.9635,-0.9639,-0.9666,-0.9663,-0.9666,-0.9678,-0.9683,-0.9691,-0.9691,-0.9688,-0.9691,-0.968,-0.9695,-0.9674,-0.9695,-0.9679,-0.9684,-0.9683,-0.9684,-0.9685,-0.9662,-0.9698,-0.9756,-0.9762,-0.9686,-0.9685,-0.9685,0,-0.9676,-0.9688,-0.9705,-0.9706,-0.9703,-0.9712,-0.9711,-0.9711,-0.9715,-0.972,-0.9723,-0.973,-0.9733,-0.9739,-0.973,-0.9716,-0.9752,-0.9731,-0.975,-0.9751,-0.9759,-0.9759,-0.9819,-0.9761,-0.9761,-0.9761,-0.9761,0,-0.972,-0.9737,-0.9723,-0.9734,-0.9752,-0.974,-0.9759,-0.9756,-0.9756,-0.9767,-0.9752,-0.9762,-0.9749,-0.9759,-0.9752,-0.9771,-0.9772,-0.977,-0.9768,-0.9772,-0.9772,-0.9775,-0.9772,-0.9763,-0.9762,-0.9762,-0.9762,0,-0.9768,-0.9759,-0.9777,-0.9773,-0.9772,-0.9786,-0.9783,-0.9793,-0.9788,-0.9801,-0.9804,-0.9796,-0.9806,-0.9798,-0.9808,-0.9804,-0.9828,-0.9823,-0.9828,-0.9827,-0.9847,-0.9845,-0.9911,-0.992,-0.9856,-0.9857,-0.9857,0,-0.9797,-0.981,-0.9807,-0.9812,-0.9812,-0.9822,-0.9826,-0.9815,-0.982,-0.9823,-0.9833,-0.9842,-0.9848,-0.9866,-0.9861,-0.9869,-0.9864,-0.9887,-0.9865,-0.9868,-0.9865,-0.9865,-0.9866,-0.9891,-0.9892,-0.9892,-0.9893,0,-0.985,-0.9845,-0.9852,-0.9858,-0.9864,-0.9868,-0.9871,-0.9876,-0.9865,-0.9872,-0.9882,-0.9887,-0.9897,-0.9907,-0.9913,-0.9913,-0.9902,-0.99,-0.9905,-0.9909,-0.9912,-0.9911,-0.9841,-0.9898,-0.9898,-0.9897,-0.9897,-0.9897,-0.989,-0.9901,-0.99,-0.9909,-0.991,-0.9913,-0.9922,-0.9918,-0.9926,-0.9934,-0.9926,-0.9939,-0.994,-0.9947,-0.9949,-0.9959,-0.995,-0.9957,-0.9959,-0.9961,-0.9964,-0.991,-0.996,-0.996,-0.996,-0.996,-0.996,0,-0.9943,-0.9942,-0.9949,-0.9954,-0.9961,-0.9948,-0.9951,-0.9958,-0.9969,-0.9971,-0.9978,-0.999,-0.9999,-0.9995,-1.0004,-1.0013,-1.0008,-1.0015,-1.0015,-1.0015,-0.9971,-0.9967,-1.0019,-1.0019,-1.0019,-1.0019,-1.0019,-1.0019,-0.9971,-0.9988,-0.9984,-1.0002,-1.0,-1.0012,-1.0015,-1.0018,-1.002,-1.0034,-1.0041,-1.0038,-1.0038,-1.0047,-1.0055,-1.0053,-1.0058,-1.0067,-1.0064,-1.0024,-1.0018,-1.0012,-1.0008,-1.0068,-1.0068,-1.0107,-1.0108,-1.0108]},{"header":{"parameterUnit":"m.s-1","parameterCategory":1,"la1":30.2991,"la2":30.254,"lo1":-89.0895,"lo2":-89.0444,"dy":0.0017,"dx":0.0017,"nx":28,"ny":28,"refTime":"2023-09-10T03:00:00:Z","depth":0,"parameterNumber":3,"parameterNumberName":"V-component_of_WINDS"},"data":[0,0,0,0,0,0,0,0,0,0,0,0,0,0,0,0,0,0,0,0,0,0,0,0,0,0,0,0,0,0,0,0,0,0,0,0,0,0,0,0,0,0,0,0,0,0,0,0,0,0,0,0,0,0,0,0,0,0,3.1851,3.1851,0,3.1873,3.1873,3.1873,3.1879,3.1879,3.1879,3.1879,3.1899,3.19,3.19,0,0,0,0,0,0,0,0,0,0,0,0,0,3.1813,3.1814,3.1851,3.1851,3.1852,3.1873,3.1873,3.1873,3.1879,3.1879,3.1879,3.1879,3.1899,3.1899,3.19,0,0,0,0,0,0,0,0,0,0,0,0,0,3.1832,3.1814,3.1851,3.1857,3.1858,3.1873,3.1873,3.1873,3.1879,3.1879,3.1879,3.1879,3.1898,3.1899,3.19,3.191,0,0,3.1903,3.1904,0,0,0,0,0,0,0,0,3.1831,3.1833,3.1856,3.1857,3.1858,3.1873,3.1867,3.1886,3.1879,3.1871,3.1879,3.1879,3.189,3.1892,3.1896,3.1911,3.1912,3.1903,3.1904,3.1904,3.1905,0,0,0,0,0,0,0,3.1829,3.1832,3.186,3.1856,3.1857,3.1858,3.1861,3.1871,3.1881,3.1872,3.1872,3.1875,3.1891,3.1895,3.1897,3.1912,3.1903,3.1904,3.1905,3.1905,3.1936,3.1937,0,0,0,0,0,0,3.1827,3.1831,3.1859,3.186,3.1843,3.1859,3.1862,3.1868,3.1881,3.1883,3.1875,3.1875,3.1894,3.1896,3.1898,3.191,3.1904,3.1905,3.1906,3.1936,3.1936,3.1937,0,0,0,0,0,0,3.1826,3.183,3.1858,3.1846,3.1849,3.186,3.1867,3.1869,3.1873,3.1884,3.1886,3.1878,3.1894,3.1896,3.1907,3.1911,3.1906,3.1907,3.1936,3.1936,3.1937,3.1935,0,0,0,0,0,0,3.1825,3.1829,3.1833,3.1846,3.185,3.1868,3.1867,3.1869,3.1875,3.1876,3.1887,3.1889,3.1894,3.1906,3.1908,3.1912,3.1907,3.1936,3.1936,3.1937,3.1935,3.1935,3.1936,0,0,0,0,0,3.1824,3.1831,3.1833,3.1837,3.1855,3.1868,3.187,3.1877,3.1876,3.188,3.1886,3.1888,3.191,3.1907,3.191,3.1914,3.1935,3.1936,3.1936,3.1935,3.1935,3.1936,0,0,0,0,0,0,3.1818,3.1833,3.1836,3.1847,3.1856,3.1869,3.1874,3.1877,3.1886,3.1885,3.1893,3.1895,3.1906,3.1911,3.1907,3.1924,3.1923,3.1924,3.192,3.1921,3.1922,3.192,3.1908,0,0,0,0,0,3.1818,3.1828,3.184,3.1849,3.1854,3.1863,3.1869,3.1873,3.1882,3.1886,3.1893,3.1902,3.1911,3.1916,3.1925,3.1936,3.1938,3.194,3.1941,3.1941,3.1942,3.1948,3.1949,3.1939,3.1939,3.1939,0,0,3.1818,3.1828,3.1833,3.1848,3.1856,3.1865,3.1866,3.1875,3.1882,3.1887,3.1898,3.1904,3.1914,3.1925,3.193,3.193,3.1945,3.1942,3.1942,3.1942,3.1949,3.195,3.1951,3.1939,3.1939,3.1939,0,0,3.1824,3.1832,3.1841,3.1848,3.186,3.1866,3.1869,3.1881,3.1885,3.1897,3.1901,3.1909,3.1924,3.1931,3.1936,3.1945,3.1947,3.1948,3.195,3.1956,3.1957,3.1958,3.1961,3.1962,3.1949,3.1949,3.1949,0,3.1822,3.1837,3.1845,3.1854,3.1861,3.1867,3.1876,3.1883,3.1896,3.19,3.19,3.192,3.1926,3.194,3.1942,3.1946,3.1949,3.1946,3.1957,3.1957,3.1958,3.1961,3.1963,3.1949,3.1949,3.1949,3.1949,0,3.1834,3.1844,3.185,3.1864,3.1872,3.1881,3.189,3.1896,3.19,3.1907,3.1918,3.1927,3.1938,3.1941,3.1945,3.1955,3.1955,3.1955,3.1954,3.1959,3.1962,3.1963,3.1949,3.1949,3.1949,3.1949,0,0,3.1835,3.1855,3.1857,3.1864,3.1877,3.1885,3.1895,3.1906,3.1912,3.1921,3.1929,3.1942,3.1943,3.1949,3.1954,3.1959,3.1966,3.1959,3.196,3.196,3.1978,3.1977,3.1979,3.1968,3.1968,3.1969,3.1977,0,3.1842,3.186,3.1868,3.1883,3.1892,3.1898,3.1907,3.1916,3.1922,3.1931,3.1938,3.1947,3.1947,3.1951,3.1957,3.1964,3.197,3.1964,3.1975,3.1975,3.1972,3.198,3.1979,3.1987,3.1979,3.1979,3.1979,0,3.1852,3.1863,3.1879,3.1892,3.1896,3.1904,3.1915,3.1924,3.1934,3.1939,3.1946,3.1951,3.1961,3.1959,3.1973,3.1968,3.1974,3.1978,3.1978,3.1979,3.1977,3.1981,3.199,3.1991,3.1981,3.1981,3.1981,0,3.1852,3.187,3.1882,3.1887,3.1903,3.1909,3.1915,3.1926,3.1932,3.1942,3.1947,3.1957,3.1963,3.1971,3.1978,3.1976,3.1991,3.199,3.1995,3.1995,3.1997,3.1997,3.2006,3.2001,3.2001,3.2001,3.2001,0,3.1859,3.1868,3.1882,3.1889,3.19,3.1909,3.1919,3.1926,3.1935,3.1944,3.195,3.1957,3.1966,3.1975,3.1981,3.1991,3.1994,3.1997,3.1998,3.1997,3.1996,3.2,3.1999,3.2001,3.2001,3.2001,3.2001,0,3.1859,3.1869,3.1883,3.1897,3.1901,3.1908,3.192,3.1927,3.1935,3.1945,3.1948,3.1959,3.197,3.1978,3.1991,3.1995,3.2006,3.2008,3.2003,3.2003,3.2008,3.2007,3.202,3.2022,3.2015,3.2015,3.2015,0,3.1863,3.187,3.1886,3.1893,3.19,3.191,3.1917,3.1927,3.1934,3.1947,3.1952,3.1964,3.1973,3.199,3.1998,3.2009,3.201,3.2014,3.2012,3.201,3.201,3.201,3.201,3.2014,3.2014,3.2014,3.2014,0,3.1868,3.1873,3.1884,3.1896,3.1905,3.1915,3.1925,3.193,3.1941,3.1948,3.196,3.1967,3.1982,3.1993,3.2004,3.2011,3.2014,3.2015,3.2017,3.2015,3.2011,3.2013,3.2003,3.2015,3.2015,3.2015,3.2015,3.2015,3.187,3.1878,3.189,3.1902,3.1911,3.192,3.1928,3.1936,3.1946,3.196,3.1964,3.1976,3.1987,3.2003,3.2009,3.2018,3.2018,3.2021,3.2021,3.2022,3.2021,3.201,3.202,3.202,3.202,3.202,3.2021,0,3.1876,3.1885,3.1896,3.191,3.1919,3.1923,3.1935,3.1942,3.1952,3.1963,3.1972,3.1985,3.1996,3.2006,3.2018,3.2023,3.2025,3.2026,3.2025,3.2026,3.2021,3.2018,3.2024,3.2024,3.2024,3.2024,3.2024,3.2024,3.188,3.1893,3.1899,3.1916,3.1924,3.1937,3.1943,3.1952,3.196,3.1975,3.1984,3.1991,3.2001,3.2013,3.2023,3.2026,3.203,3.203,3.2033,3.2027,3.2027,3.2026,3.2024,3.2031,3.2031,3.2038,3.2038,3.2038]}]]